Abilene, TX

9:28 AM CST on January 22, 2018 (GMT -0600)
Abilene Regional

Weather History for KABI - April, 2013

Change the Weather History Date:

Tuesday, April 2, 2013

  Actual Average Record
Temperature  
Mean Temperature 53 °F 61 °F  
Max Temperature 63 °F 74 °F 93 °F (1903)
Min Temperature 42 °F 48 °F 28 °F (1896)
Degree Days  
Heating Degree Days 12 6  
Month to date heating degree days 12 12  
Since 1 July heating degree days 2108 2443  
Cooling Degree Days 0 2  
Month to date cooling degree days 3 4  
Year to date cooling degree days 49 38  
Moisture  
Dew Point 46 °F    
Average Humidity 92    
Maximum Humidity 100    
Minimum Humidity 84    
Precipitation  
Precipitation 0.20 in 0.04 in 1.17 in (2017)
Month to date precipitation 0.30 0.09  
Year to date precipitation 2.80 4.21  
Sea Level Pressure  
Sea Level Pressure 29.99 in    
Wind  
Wind Speed 13 mph (North)    
Max Wind Speed 24 mph    
Max Gust Speed 30 mph    
Visibility 6 miles    
Events Rain    
T = Trace of Precipitation, MM = Missing Value Source: NWS Daily Summary

Daily Weather History Graph

Daily Weather History Graph

Search for Another Location

Airport or City:

Trip Planner

Search our weather history database for the weather conditions in past years. The results will help you decide how hot, cold, wet, or windy it might be!

Date:

Astronomy

Apr. 02, 2013 Rise Set
Actual Time 7:25 AM CDT 7:59 PM CDT
Civil Twilight 7:00 AM CDT 8:24 PM CDT
Nautical Twilight 6:31 AM CDT 8:53 PM CDT
Astronomical Twilight 6:01 AM CDT 9:23 PM CDT
Moon 1:52 AM CDT (4/2) 12:31 PM CDT (4/2)
Length of Visible Light 13h 23m
Length of Day
12h 34m
Waning Gibbous, 55% of the Moon is Illuminated
Apr 2
Waning Gibbous
Apr 2
Last Quarter
Apr 10
New
Apr 18
First Quarter
Apr 25
Full

Hourly Weather History & Observations

Time (CDT) Temp. Windchill Dew Point Humidity Pressure Visibility Wind Dir Wind Speed Gust Speed Precip Events Conditions
12:52 AM 61.0 °F - 57.0 °F 87% 29.88 in 9.0 mi East 19.6 mph 31.1 mph N/A Rain Light Rain
1:52 AM 61.0 °F - 57.9 °F 90% 29.86 in 10.0 mi East 19.6 mph - 0.05 in   Clear
2:52 AM 61.0 °F - 57.0 °F 87% 29.88 in 10.0 mi ESE 9.2 mph - N/A   Overcast
3:52 AM 60.1 °F - 55.9 °F 86% 29.88 in 10.0 mi SE 6.9 mph - N/A   Mostly Cloudy
4:52 AM 62.1 °F - 57.9 °F 86% 29.90 in 10.0 mi SSE 8.1 mph - N/A   Mostly Cloudy
5:44 AM 62.6 °F - 59.0 °F 88% 29.95 in 10.0 mi South 4.6 mph - 0.00 in   Mostly Cloudy
5:52 AM 63.0 °F - 59.0 °F 87% 29.89 in 10.0 mi Calm Calm - 0.00 in   Overcast
6:21 AM 53.6 °F - 51.8 °F 94% 29.97 in 9.0 mi North 11.5 mph - N/A   Overcast
6:52 AM 53.1 °F - 50.0 °F 89% 29.92 in 10.0 mi North 15.0 mph - N/A   Overcast
7:24 AM 53.6 °F - 50.0 °F 88% 29.98 in 9.0 mi North 15.0 mph - N/A   Overcast
7:52 AM 52.0 °F - 48.9 °F 89% 29.94 in 9.0 mi North 13.8 mph - N/A   Overcast
7:59 AM 51.8 °F - 48.2 °F 88% 29.99 in 9.0 mi North 13.8 mph - N/A   Overcast
8:52 AM 48.9 °F - 46.9 °F 93% 29.97 in 7.0 mi North 12.7 mph - N/A   Overcast
9:52 AM 46.9 °F - 46.0 °F 97% 30.01 in 3.0 mi NNW 13.8 mph - 0.00 in Rain Light Rain
10:03 AM 46.4 °F 40.1 °F 46.4 °F 100% 30.05 in 2.5 mi NNW 15.0 mph - 0.01 in Rain Light Rain
10:40 AM 46.4 °F 41.5 °F 44.6 °F 93% 30.05 in 2.5 mi North 10.4 mph - 0.02 in Rain Light Rain
10:52 AM 46.0 °F 40.6 °F 45.0 °F 96% 30.02 in 2.0 mi North 11.5 mph - 0.02 in Rain Light Rain
11:19 AM 46.4 °F 40.4 °F 44.6 °F 93% 30.05 in 3.0 mi North 13.8 mph - 0.00 in Rain Light Rain
11:52 AM 45.0 °F 38.2 °F 44.1 °F 97% 30.02 in 3.0 mi NNW 15.0 mph - 0.00 in   Overcast
12:48 PM 44.6 °F 37.8 °F 42.8 °F 93% 30.05 in 2.5 mi NNW 15.0 mph - 0.00 in Rain Light Rain
12:52 PM 44.1 °F 37.4 °F 43.0 °F 96% 30.03 in 2.5 mi NNW 13.8 mph - 0.00 in Rain Light Rain
1:03 PM 44.6 °F 37.8 °F 44.6 °F 100% 30.05 in 3.0 mi NNW 15.0 mph - 0.00 in   Overcast
1:40 PM 44.6 °F 37.4 °F 42.8 °F 93% 30.05 in 2.5 mi North 16.1 mph - 0.00 in Rain Light Rain
1:52 PM 44.1 °F 37.7 °F 43.0 °F 96% 30.03 in 3.0 mi North 12.7 mph - 0.00 in Rain Light Rain
2:08 PM 44.6 °F 38.1 °F 42.8 °F 93% 30.05 in 2.5 mi North 13.8 mph - 0.00 in Rain Light Rain
2:20 PM 44.6 °F 38.1 °F 42.8 °F 93% 30.04 in 3.0 mi North 13.8 mph - 0.00 in Rain Light Rain
2:52 PM 44.1 °F 37.7 °F 44.1 °F 100% 30.01 in 2.5 mi North 12.7 mph - 0.00 in Rain Light Rain
3:03 PM 44.6 °F 39.2 °F 44.6 °F 100% 30.03 in 3.0 mi North 10.4 mph - 0.00 in Rain Light Rain
3:26 PM 44.6 °F 37.4 °F 42.8 °F 93% 30.02 in 3.0 mi North 16.1 mph - 0.01 in Rain Light Rain
3:52 PM 43.0 °F 36.0 °F 42.1 °F 97% 29.99 in 5.0 mi NNW 13.8 mph - 0.01 in   Overcast
4:52 PM 43.0 °F 35.7 °F 42.1 °F 97% 29.97 in 8.0 mi North 15.0 mph - N/A   Overcast
5:47 PM 42.8 °F 34.8 °F 42.8 °F 100% 29.98 in 6.0 mi North 17.3 mph - N/A   Overcast
5:52 PM 43.0 °F 35.7 °F 42.1 °F 97% 29.96 in 6.0 mi North 15.0 mph - N/A   Overcast
6:52 PM 42.1 °F 34.5 °F 41.0 °F 96% 29.98 in 2.5 mi North 15.0 mph - N/A   Overcast
7:21 PM 42.8 °F 37.0 °F 41.0 °F 93% 30.00 in 3.0 mi North 10.4 mph 21.9 mph 0.00 in Rain Light Rain
7:31 PM 42.8 °F 35.4 °F 41.0 °F 93% 30.01 in 4.0 mi North 15.0 mph - 0.00 in   Overcast
7:52 PM 42.1 °F 34.9 °F 41.0 °F 96% 30.02 in 4.0 mi North 13.8 mph - 0.00 in Rain Light Rain
8:52 PM 42.1 °F 35.7 °F 42.1 °F 100% 30.00 in 8.0 mi North 11.5 mph - 0.03 in Rain Light Rain
8:59 PM 42.8 °F 36.6 °F 42.8 °F 100% 30.01 in 9.0 mi North 11.5 mph - 0.00 in Rain Light Rain
9:52 PM 42.1 °F 36.1 °F 42.1 °F 100% 30.01 in 8.0 mi ENE 10.4 mph - 0.10 in Rain Light Rain
10:34 PM 42.8 °F 35.8 °F 42.8 °F 100% 30.02 in 10.0 mi North 13.8 mph - 0.03 in   Overcast
10:52 PM 42.1 °F 35.7 °F 42.1 °F 100% 30.01 in 10.0 mi North 11.5 mph - 0.03 in   Overcast
11:52 PM 42.1 °F 35.2 °F 42.1 °F 100% 30.01 in 10.0 mi North 12.7 mph - N/A   Overcast